Hourly Data Report for August 03, 2021

MUSKOKA
ONTARIO
Current Station Operator: NAVCAN

44°58'29.000" N
79°18'12.000" W
281.90 m
6115529
71532
YQA

Download Data

Hourly Data (August 2021)
Hourly Data Report for August 3, 2021
TIME
LST
Temp Definition
°C
Dew Point Definition
°C
Rel Hum Definition
%
Precip. Amount Definition
mm

Wind Dir Definition
10's deg

Wind Spd Definition
km/h
Visibility Definition
km
Stn Press Definition
kPa
Hmdx Definition


Wind Chill Definition


Weather Definition


00:00 12.1 11.6 97 0.0 LegendMM LegendMM 16.1 98.50     LegendNANA
01:00 12.2 11.9 98 0.0 LegendMM LegendMM 16.1 98.50     LegendNANA
02:00 9.8 9.7 99 0.0 LegendMM LegendMM 11.3 98.48     LegendNANA
03:00 9.7 9.7 100 0.0 LegendMM LegendMM 12.9 98.46     LegendNANA
04:00 9.7 9.7 100 0.0 LegendMM LegendMM 9.7 98.44     Fog
05:00 10.2 10.2 100 0.0 LegendMM LegendMM 16.1 98.42     LegendNANA
06:00 9.5 9.5 100 0.0 LegendMM LegendMM 16.1 98.46     LegendNANA
07:00 14.1 13.6 97 0.0 LegendMM LegendMM 16.1 98.47     LegendNANA
08:00 18.3 15.2 82 0.0 LegendMM LegendMM 16.1 98.49     LegendNANA
09:00 20.0 15.5 75 0.0 LegendMM LegendMM 16.1 98.49     LegendNANA
10:00 22.1 15.4 66 0.0 LegendMM LegendMM 16.1 98.52 26   LegendNANA
11:00 23.2 14.1 56 0.0 LegendMM LegendMM 16.1 98.52 27   LegendNANA
12:00 24.0 12.6 49 0.0 LegendMM LegendMM 16.1 98.49 27   LegendNANA
13:00 23.8 12.4 48 0.0 LegendMM LegendMM 16.1 98.46 26   LegendNANA
14:00 24.2 11.4 44 0.0 LegendMM LegendMM 16.1 98.42 26   LegendNANA
15:00 24.7 11.4 43 0.0 LegendMM LegendMM 16.1 98.41 27   LegendNANA
16:00 24.2 11.7 45 0.0 LegendMM LegendMM 16.1 98.40 26   LegendNANA
17:00 23.9 13.0 50 0.0 LegendMM LegendMM 16.1 98.37 27   LegendNANA
18:00 22.9 13.3 54 0.0 LegendMM LegendMM 16.1 98.40 26   LegendNANA
19:00 21.4 13.5 60 0.0 LegendMM LegendMM 16.1 98.41     LegendNANA
20:00 16.4 14.4 88 0.0 LegendMM LegendMM 16.1 98.44     LegendNANA
21:00 14.9 14.1 95 0.0 LegendMM LegendMM 16.1 98.52     LegendNANA
22:00 14.1 14.0 99 0.0 LegendMM LegendMM 16.1 98.52     LegendNANA
23:00 13.5 13.4 99 0.0 LegendMM LegendMM 16.1 98.51     LegendNANA

Notes on Data Quality.

Legend

  • E = Estimated
  • M = Missing
  • NA = Not Available*
  • [empty] = Indicates an unobserved value
Date modified: